Regional Weather Roundup
Issued by NWS

Home | Current Version | Previous Version | Text Only | Print | Product List | Glossary On
Versions: 1 2 3 4 5 6 7 8 9 10 11 12 13 14 15 16 17 18 19 20 21 22 23 24 25 26 27 28 29 30 31 32 33 34 35 36 37 38 39 40 41 42 43 44 45 46 47 48 49 50
586
ASUS44 KJAN 020210
RWRMS

MISSISSIPPI HOURLY WEATHER ROUNDUP
NATIONAL WEATHER SERVICE JACKSON MS
800 PM CST SUN MAR 01 2015

NOTE: "FAIR: INDICATES FEW OR NO CLOUDS BELOW 12,000 FEET WITH NO
SIGNIFICANT WEATHER AND/OR OBSTRUCTIONS TO VISIBILITY.

MSZ001>002-007>008-010>013-018>021-025>028-034>036-020300-
NORTHWEST MISSISSIPPI

CITY           SKY/WX    TMP DP  RH WIND       PRES   REMARKS
CLARKSDALE     CLOUDY    41  41 100 N14       30.36R
CLEVELAND      DRIZZLE   43  43 100 N9        30.33R
GREENWOOD        N/A    N/A N/A N/A MISG      30.31R
GREENVILLE     CLOUDY    44  42  93 N8        30.33R FOG
OLIVE BRANCH   LGT RAIN  39  39 100 N9        30.35R FOG     WCI  33
OXFORD         CLOUDY    48  48 100 CALM      30.35R FOG
TUNICA         CLOUDY    37  37 100 N14       30.37R FOG     WCI  29
$$

MSZ003>006-009-014>017-022>024-029>033-037>039-020300-
NORTHEAST MISSISSIPPI

CITY           SKY/WX    TMP DP  RH WIND       PRES   REMARKS
COLUMBUS AFB   CLOUDY    53  53 100 S2        30.31R
CORINTH        DRZL/FOG  52  50  93 S3        30.31R VSB 1/2
GOLDN TRIANGLE CLOUDY    54  50  87 S5        30.31
STARKVILLE     CLOUDY    52  52 100 CALM      30.30S FOG
TUPELO         RAIN      52  50  93 NE3       30.32R VSB 1
$$

MSZ040-058-020300-
CENTRAL MISSISSIPPI

CITY           SKY/WX    TMP DP  RH WIND       PRES   REMARKS
JACKSON INTL   CLOUDY    60  58  92 CALM      30.28R
JACKSON HAWKNS CLOUDY    59  57  93 CALM      30.28R
MERIDIAN KEY   CLOUDY    55  54  96 S13       30.30S
MERIDIAN NAS   CLOUDY    55  53  93 CALM      30.32R
VICKSBURG      LGT RAIN  50  49  96 N6        30.29R FOG
$$

MSZ059>079-020300-
SOUTH MISSISSIPPI

CITY           SKY/WX    TMP DP  RH WIND       PRES   REMARKS
BROOKHAVEN     CLOUDY    59  59 100 SE8       30.26F
HATTIESBURG    HVY RAIN  58  57  97 E6        30.34R FOG
MCCOMB         RAIN      62  60  93 SE10      30.28S FOG
NATCHEZ        CLOUDY    55  54  94 N6        30.29R
PINE BELT      CLOUDY    57  54  88 CALM      30.35R
$$

MSZ080>082-020300-
COASTAL MISSISSIPPI

CITY           SKY/WX    TMP DP  RH WIND       PRES   REMARKS
BAY ST LOUIS   FOG       61  57  88 E6        30.29R VSB 1
BILOXI         CLOUDY    60  60 100 E7        30.29S FOG
PASCAGOULA     CLOUDY    58  57  97 E6        30.32R FOG
GULFPORT       CLOUDY    60  59  96 E6        30.30R FOG
$$



USA.gov is the U.S. government's official web portal to all federal, state and local government web resources and services.